| time (UTC) | temp C | wind direction | speed KPH | gust KPH | rain 1hr cm | rain 24hr cm | rain mn cm | humidity % | barometer mb |
| 20260510124558 | 16 | 266 | 3.2 | 6.4 | 0.00 | 0.00 | 0.00 | 85 | 1013.0 |
| 20260510123052 | 16 | 0 | 0.0 | 1.6 | 0.00 | 0.00 | 0.00 | 84 | 1013.0 |
| 20260510121554 | 16 | 0 | 0.0 | 3.2 | 0.00 | 0.00 | 0.00 | 84 | 1012.9 |
| 20260510114555 | 16 | 252 | 1.6 | 4.8 | 0.00 | 0.00 | 0.00 | 84 | 1012.9 |
| 20260510113104 | 16 | 230 | 3.2 | 6.4 | 0.00 | 0.00 | 0.00 | 84 | 1013.0 |
| 20260510111551 | 16 | 0 | 0.0 | 4.8 | 0.00 | 0.00 | 0.00 | 84 | 1013.0 |
| 20260510110056 | 16 | 149 | 0.0 | 6.4 | 0.00 | 0.00 | 0.00 | 84 | 1013.0 |
| 20260510104555 | 16 | 0 | 1.6 | 8.0 | 0.00 | 0.00 | 0.00 | 84 | 1013.0 |
| 20260510103059 | 16 | 148 | 1.6 | 4.8 | 0.00 | 0.00 | 0.00 | 84 | 1013.0 |
| 20260510101554 | 16 | 0 | 1.6 | 4.8 | 0.00 | 0.00 | 0.00 | 84 | 1013.1 |
| 20260510100109 | 16 | 147 | 1.6 | 6.4 | 0.00 | 0.00 | 0.00 | 84 | 1013.1 |
| 20260510094600 | 16 | 144 | 0.0 | 4.8 | 0.00 | 0.00 | 0.00 | 83 | 1013.1 |
| 20260510093058 | 16 | 144 | 0.0 | 4.8 | 0.00 | 0.00 | 0.00 | 83 | 1013.1 |
| 20260510091554 | 16 | 143 | 3.2 | 8.0 | 0.00 | 0.00 | 0.00 | 83 | 1013.2 |
| 20260510090058 | 16 | 0 | 0.0 | 8.0 | 0.00 | 0.00 | 0.00 | 83 | 1013.1 |
| 20260510084611 | 16 | 182 | 1.6 | 8.0 | 0.00 | 0.00 | 0.00 | 83 | 1013.2 |
| 20260510083053 | 16 | 215 | 0.0 | 4.8 | 0.00 | 0.00 | 0.00 | 83 | 1013.3 |
| 20260510081555 | 16 | 0 | 0.0 | 0.0 | 0.00 | 0.00 | 0.00 | 83 | 1013.4 |
| 20260510080051 | 16 | 0 | 0.0 | 0.0 | 0.00 | 0.00 | 0.00 | 83 | 1013.5 |
| 20260510074549 | 16 | 217 | 1.6 | 8.0 | 0.00 | 0.00 | 0.00 | 83 | 1013.6 |
| 20260510073103 | 16 | 226 | 3.2 | 6.4 | 0.00 | 0.00 | 0.00 | 83 | 1013.7 |
| 20260510071553 | 16 | 236 | 1.6 | 4.8 | 0.00 | 0.00 | 0.00 | 83 | 1013.8 |
| 20260510070059 | 16 | 237 | 0.0 | 3.2 | 0.00 | 0.00 | 0.00 | 83 | 1013.9 |
| 20260510064552 | 16 | 237 | 0.0 | 4.8 | 0.00 | 0.00 | 0.00 | 83 | 1013.9 |
| 20260510063053 | 16 | 0 | 0.0 | 3.2 | 0.00 | 0.00 | 0.00 | 83 | 1014.1 |
| 20260510061556 | 16 | 239 | 0.0 | 4.8 | 0.00 | 0.00 | 0.00 | 83 | 1014.0 |
| 20260510060055 | 16 | 240 | 0.0 | 4.8 | 0.00 | 0.00 | 0.00 | 83 | 1013.8 |
| 20260510054551 | 16 | 242 | 1.6 | 6.4 | 0.00 | 0.00 | 0.00 | 82 | 1013.8 |
| 20260510053051 | 16 | 243 | 1.6 | 4.8 | 0.00 | 0.00 | 0.00 | 82 | 1013.9 |
| 20260510051550 | 16 | 244 | 0.0 | 3.2 | 0.00 | 0.00 | 0.00 | 82 | 1013.8 |
| 20260510050052 | 16 | 244 | 1.6 | 6.4 | 0.00 | 0.00 | 0.00 | 82 | 1013.8 |
| 20260510044556 | 16 | 0 | 3.2 | 6.4 | 0.00 | 0.00 | 0.00 | 82 | 1013.8 |
| 20260510043102 | 16 | 241 | 0.0 | 3.2 | 0.00 | 0.00 | 0.00 | 83 | 1013.8 |
| 20260510041551 | 16 | 240 | 1.6 | 4.8 | 0.00 | 0.00 | 0.00 | 83 | 1013.7 |
| 20260510040100 | 16 | 0 | 1.6 | 4.8 | 0.00 | 0.00 | 0.00 | 82 | 1013.5 |
| 20260510034557 | 16 | 242 | 3.2 | 6.4 | 0.00 | 0.00 | 0.00 | 83 | 1013.6 |
| 20260510033115 | 16 | 240 | 1.6 | 6.4 | 0.00 | 0.00 | 0.00 | 82 | 1013.4 |
| 20260510031558 | 16 | 244 | 1.6 | 6.4 | 0.00 | 0.00 | 0.00 | 82 | 1013.1 |
| 20260510030059 | 16 | 242 | 3.2 | 8.0 | 0.00 | 0.00 | 0.00 | 82 | 1013.0 |
| 20260510024552 | 16 | 248 | 1.6 | 8.0 | 0.00 | 0.00 | 0.00 | 82 | 1012.9 |
| 20260510023049 | 16 | 229 | 3.2 | 9.7 | 0.00 | 0.00 | 0.00 | 82 | 1012.9 |
| 20260510021550 | 16 | 239 | 3.2 | 8.0 | 0.00 | 0.00 | 0.00 | 81 | 1012.8 |
| 20260510020053 | 17 | 250 | 1.6 | 12.9 | 0.00 | 0.00 | 0.00 | 81 | 1012.6 |
| 20260510014555 | 17 | 259 | 4.8 | 12.9 | 0.00 | 0.00 | 0.00 | 80 | 1012.7 |
| 20260510013055 | 18 | 238 | 4.8 | 14.5 | 0.00 | 0.00 | 0.00 | 78 | 1012.7 |
| 20260510011552 | 19 | 242 | 3.2 | 12.9 | 0.00 | 0.00 | 0.00 | 76 | 1012.7 |
| 20260510010059 | 19 | 235 | 3.2 | 16.1 | 0.00 | 0.00 | 0.00 | 76 | 1012.7 |
| 20260510004610 | 19 | 252 | 4.8 | 16.1 | 0.00 | 0.00 | 0.00 | 75 | 1012.8 |
| 20260510003057 | 18 | 290 | 8.0 | 17.7 | 0.00 | 0.00 | 0.00 | 76 | 1012.9 |
| 20260510001553 | 19 | 259 | 6.4 | 19.3 | 0.00 | 0.00 | 0.00 | 75 | 1012.8 |
| 20260510000104 | 19 | 360 | 9.7 | 17.7 | 0.00 | 0.00 | 0.00 | 76 | 1012.5 |
| 20260509234559 | 20 | 211 | 6.4 | 16.1 | 0.00 | 0.00 | 0.00 | 74 | 1012.3 |
| 20260509233052 | 20 | 252 | 4.8 | 19.3 | 0.00 | 0.00 | 0.00 | 73 | 1012.5 |
| 20260509231554 | 20 | 238 | 8.0 | 16.1 | 0.00 | 0.00 | 0.00 | 73 | 1012.6 |
| 20260509230050 | 20 | 261 | 8.0 | 19.3 | 0.00 | 0.00 | 0.00 | 73 | 1012.5 |
| 20260509224555 | 20 | 225 | 9.7 | 17.7 | 0.00 | 0.00 | 0.00 | 74 | 1012.8 |
| 20260509223101 | 20 | 228 | 4.8 | 17.7 | 0.00 | 0.00 | 0.00 | 72 | 1012.8 |
| 20260509221552 | 21 | 182 | 8.0 | 19.3 | 0.00 | 0.00 | 0.00 | 71 | 1012.9 |
| 20260509220053 | 20 | 250 | 6.4 | 16.1 | 0.00 | 0.00 | 0.00 | 73 | 1013.0 |
| 20260509214602 | 20 | 240 | 6.4 | 22.5 | 0.00 | 0.00 | 0.00 | 73 | 1013.2 |
| 20260509213055 | 20 | 234 | 8.0 | 17.7 | 0.00 | 0.00 | 0.00 | 73 | 1013.2 |
| 20260509211554 | 20 | 252 | 9.7 | 20.9 | 0.00 | 0.00 | 0.00 | 73 | 1013.4 |
| 20260509210106 | 20 | 230 | 9.7 | 20.9 | 0.00 | 0.00 | 0.00 | 75 | 1013.6 |
| 20260509204558 | 20 | 245 | 8.0 | 19.3 | 0.00 | 0.00 | 0.00 | 74 | 1013.6 |
| 20260509203059 | 20 | 234 | 8.0 | 17.7 | 0.00 | 0.00 | 0.00 | 74 | 1013.8 |
| 20260509201608 | 20 | 249 | 9.7 | 19.3 | 0.00 | 0.00 | 0.00 | 73 | 1013.9 |
| 20260509200107 | 20 | 246 | 8.0 | 19.3 | 0.00 | 0.00 | 0.00 | 74 | 1013.9 |
| 20260509194554 | 20 | 360 | 8.0 | 19.3 | 0.00 | 0.00 | 0.00 | 75 | 1013.8 |
| 20260509193057 | 20 | 236 | 8.0 | 20.9 | 0.00 | 0.00 | 0.00 | 74 | 1013.8 |
| 20260509191553 | 20 | 198 | 9.7 | 20.9 | 0.00 | 0.00 | 0.00 | 75 | 1013.8 |
| 20260509190053 | 20 | 222 | 8.0 | 16.1 | 0.00 | 0.00 | 0.00 | 74 | 1013.9 |
| 20260509184602 | 20 | 217 | 8.0 | 16.1 | 0.00 | 0.00 | 0.00 | 74 | 1013.9 |
| 20260509183057 | 20 | 233 | 6.4 | 14.5 | 0.00 | 0.00 | 0.00 | 74 | 1014.0 |
| 20260509181609 | 20 | 211 | 8.0 | 17.7 | 0.00 | 0.00 | 0.00 | 75 | 1013.9 |
| 20260509180051 | 20 | 232 | 6.4 | 14.5 | 0.00 | 0.00 | 0.00 | 74 | 1013.9 |
| 20260509174550 | 20 | 233 | 4.8 | 14.5 | 0.00 | 0.00 | 0.00 | 75 | 1014.1 |
| 20260509173102 | 20 | 234 | 4.8 | 14.5 | 0.00 | 0.00 | 0.00 | 73 | 1014.1 |
| 20260509171556 | 21 | 188 | 4.8 | 14.5 | 0.00 | 0.00 | 0.00 | 74 | 1014.2 |
| 20260509170048 | 20 | 227 | 3.2 | 12.9 | 0.00 | 0.00 | 0.00 | 75 | 1014.0 |
| 20260509164551 | 18 | 253 | 4.8 | 11.3 | 0.00 | 0.00 | 0.00 | 78 | 1014.1 |
| 20260509163050 | 18 | 182 | 1.6 | 8.0 | 0.00 | 0.00 | 0.00 | 80 | 1014.2 |
| 20260509161549 | 17 | 254 | 3.2 | 9.7 | 0.00 | 0.00 | 0.00 | 81 | 1014.3 |
| 20260509160049 | 17 | 217 | 1.6 | 6.4 | 0.00 | 0.00 | 0.00 | 82 | 1014.2 |
| 20260509154552 | 17 | 211 | 3.2 | 9.7 | 0.00 | 0.00 | 0.00 | 83 | 1014.2 |
| 20260509153054 | 17 | 163 | 4.8 | 8.0 | 0.00 | 0.00 | 0.00 | 82 | 1014.2 |
| 20260509151604 | 17 | 191 | 1.6 | 6.4 | 0.00 | 0.00 | 0.00 | 83 | 1014.2 |
| 20260509150050 | 16 | 167 | 1.6 | 9.7 | 0.00 | 0.00 | 0.00 | 84 | 1014.2 |
| 20260509144607 | 16 | 167 | 1.6 | 6.4 | 0.00 | 0.00 | 0.00 | 84 | 1014.1 |
| 20260509143119 | 16 | 0 | 0.0 | 6.4 | 0.00 | 0.00 | 0.00 | 85 | 1013.9 |
| 20260509141554 | 16 | 166 | 3.2 | 8.0 | 0.00 | 0.00 | 0.00 | 85 | 1014.1 |
| 20260509134609 | 16 | 153 | 1.6 | 9.7 | 0.00 | 0.00 | 0.00 | 85 | 1014.0 |
| 20260509133051 | 16 | 151 | 3.2 | 11.3 | 0.00 | 0.00 | 0.00 | 85 | 1013.8 |
| 20260509131551 | 16 | 156 | 3.2 | 9.7 | 0.00 | 0.00 | 0.00 | 85 | 1013.8 |
| 20260509130057 | 16 | 155 | 3.2 | 8.0 | 0.00 | 0.00 | 0.00 | 85 | 1013.8 |